Retour au catalogue

FENGYUN 1C DEB

ActifSSO
NORAD 36267·DEBRIS·🇨🇳 China

Lancé May 10, 1999 depuis Taiyuan Satellite Launch Center

Loading…

Prochains Passages (prochaines 24 heures)

TLE

FraisSource: Space-Track

Époque: Sep 14, 2026, 07:43 UTC

1 36267U 99025DWU 26257.32175002  .00000985  00000-0  53920-3 0  9995
2 36267  98.5733 196.5776 0126139 145.6493   5.6629 14.10080863904121

Suivez FENGYUN 1C DEB en temps réel avec AllMySat

Download on the App Store